Location: Drocourt
(49.0571°N, 1.7669°E)
Time: 10:19:58
(UTC+00:00)

Transit 4A - Pass Details

Date: 22 April 2024
Orbit: 871 x 971 km, 66.8° (Epoch: 24 May)

Event Time Altitude Azimuth Distance (km) Brightness Sun altitude
Rises 19:02:24 0° 324° (NW) 3,474 12.0 -1.8°
Reaches altitude 10° 19:05:12 10° 335° (NNW) 2,530 11.0 -2.2°
Maximum altitude 19:10:20 31° 37° (NE) 1,490 8.9 -3.0°
Drops below altitude 10° 19:15:29 10° 99° (E) 2,533 9.6 -3.7°
Enters shadow 19:17:01 - 106° (ESE) 3,043 9.9 -4.0°
Sets 19:18:16 0° 110° (ESE) 3,479 - -4.2°
